M I D A S
Marine Information and Data Acquisition System
Tripno 1249 of the Zeeleeuw from 2007-04-20 07:17:21 to 2007-04-20 08:00:09
Back to CruiseResearch ActivitiesStationsMapUnderway DataData graphs

EquipmentUnitsComments
TimeDGPSUTC
LatitudeDGPSDM.mWGS84
LongitudeDGPSDM.mWGS84
SpeedMeteo Stationm/sRelative wind speed
DirectionMeteo StationdegRelative wind direction
TemperatureMeteo Stationdeg CelciusAir temperature
PressureMeteo StationPaAtmospheric pressure
HumidityMeteo Station%Relative humidity
Missing or incorrect values are displayed as -999
Metereological data collected by the RV Zeeleeuw from 2007-04-20 07:18:22 to 2007-04-20 12:17:08
Time Latitude Longitude Speed Direction Temperature Pressure Humidity
2007-04-20 07:19 51°13.6 2°56.069 -999 -999 -999 -999 -999
2007-04-20 07:20 51°13.627 2°55.985 -999 -999 -999 -999 -999
2007-04-20 07:21 51°13.659 2°55.895 -999 -999 -999 -999 -999
2007-04-20 07:22 51°13.683 2°55.817 -999 -999 -999 -999 -999
2007-04-20 07:23 51°13.693 2°55.761 -999 -999 -999 -999 -999
2007-04-20 07:24 51°13.697 2°55.751 -999 -999 -999 -999 -999
2007-04-20 07:25 51°13.706 2°55.761 -999 -999 -999 -999 -999
2007-04-20 07:26 51°13.692 2°55.741 -999 -999 -999 -999 -999
2007-04-20 07:27 51°13.715 2°55.719 -999 -999 -999 -999 -999
2007-04-20 07:28 51°13.791 2°55.663 -999 -999 -999 -999 -999
2007-04-20 07:29 51°13.882 2°55.597 -999 -999 -999 -999 -999
2007-04-20 07:30 51°14.002 2°55.509 -999 -999 -999 -999 -999
2007-04-20 07:31 51°14.149 2°55.4 -999 -999 -999 -999 -999
2007-04-20 07:32 51°14.275 2°55.229 -999 -999 -999 -999 -999
2007-04-20 07:33 51°14.374 2°54.998 -999 -999 -999 -999 -999
2007-04-20 07:34 51°14.4 2°54.704 -999 -999 -999 -999 -999
2007-04-20 07:35 51°14.365 2°54.399 -999 -999 -999 -999 -999
2007-04-20 07:36 51°14.271 2°54.11 -999 -999 -999 -999 -999
2007-04-20 07:37 51°14.168 2°53.836 -999 -999 -999 -999 -999
2007-04-20 07:38 51°14.082 2°53.595 -999 -999 -999 -999 -999
2007-04-20 07:39 51°14.037 2°53.437 -999 -999 -999 -999 -999
2007-04-20 07:40 51°13.984 2°53.322 -999 -999 -999 -999 -999
2007-04-20 07:41 51°13.934 2°53.225 -999 -999 -999 -999 -999
2007-04-20 07:42 51°13.887 2°53.131 -999 -999 -999 -999 -999
2007-04-20 07:43 51°13.844 2°53.036 -999 -999 -999 -999 -999
2007-04-20 07:44 51°13.802 2°52.943 -999 -999 -999 -999 -999
2007-04-20 07:45 51°13.758 2°52.851 -999 -999 -999 -999 -999
2007-04-20 07:46 51°13.715 2°52.764 -999 -999 -999 -999 -999
2007-04-20 07:47 51°13.669 2°52.678 -999 -999 -999 -999 -999
2007-04-20 07:48 51°13.626 2°52.575 -999 -999 -999 -999 -999
2007-04-20 07:49 51°13.65 2°52.451 -999 -999 -999 -999 -999
2007-04-20 07:50 51°13.709 2°52.493 -999 -999 -999 -999 -999
2007-04-20 07:51 51°13.795 2°52.718 -999 -999 -999 -999 -999
2007-04-20 07:52 51°13.898 2°52.979 -999 -999 -999 -999 -999
2007-04-20 07:53 51°13.99 2°53.242 -999 -999 -999 -999 -999
2007-04-20 07:54 51°14.071 2°53.525 -999 -999 -999 -999 -999
2007-04-20 07:55 51°14.164 2°53.788 -999 -999 -999 -999 -999
2007-04-20 07:56 51°14.257 2°54.064 -999 -999 -999 -999 -999
2007-04-20 07:57 51°14.359 2°54.317 -999 -999 -999 -999 -999
2007-04-20 07:58 51°14.398 2°54.626 -999 -999 -999 -999 -999
2007-04-20 07:59 51°14.374 2°54.955 -999 -999 -999 -999 -999
2007-04-20 08:00 51°14.287 2°55.227 -999 -999 -999 -999 -999
2007-04-20 08:01 51°14.18 2°55.367 -999 -999 -999 -999 -999
2007-04-20 08:02 51°14.087 2°55.475 -999 -999 -999 -999 -999
2007-04-20 08:03 51°14.013 2°55.58 -999 -999 -999 -999 -999
2007-04-20 08:04 51°13.948 2°55.597 -999 -999 -999 -999 -999
2007-04-20 08:05 51°13.942 2°55.602 -999 -999 -999 -999 -999
2007-04-20 08:06 51°13.95 2°55.624 -999 -999 -999 -999 -999
2007-04-20 08:07 51°13.96 2°55.577 -999 -999 -999 -999 -999
2007-04-20 08:08 51°13.982 2°55.519 -999 -999 -999 -999 -999
2007-04-20 08:09 51°14 2°55.47 -999 -999 -999 -999 -999
2007-04-20 08:10 51°14.006 2°55.457 -999 -999 -999 -999 -999
2007-04-20 08:11 51°14.006 2°55.454 -999 -999 -999 -999 -999
2007-04-20 08:12 51°14.007 2°55.453 -999 -999 -999 -999 -999
2007-04-20 08:13 51°14.006 2°55.452 -999 -999 -999 -999 -999
2007-04-20 08:14 51°14.006 2°55.451 -999 -999 -999 -999 -999
2007-04-20 08:15 51°14.005 2°55.45 -999 -999 -999 -999 -999
2007-04-20 08:16 51°14.005 2°55.451 -999 -999 -999 -999 -999
2007-04-20 08:17 51°14.004 2°55.452 -999 -999 -999 -999 -999
2007-04-20 08:18 51°14.003 2°55.455 -999 -999 -999 -999 -999
2007-04-20 08:19 51°14.004 2°55.451 -999 -999 -999 -999 -999
2007-04-20 08:20 51°14.004 2°55.449 -999 -999 -999 -999 -999
2007-04-20 08:21 51°14.005 2°55.449 -999 -999 -999 -999 -999
2007-04-20 08:22 51°14.005 2°55.45 -999 -999 -999 -999 -999
2007-04-20 08:23 51°14.005 2°55.451 -999 -999 -999 -999 -999
2007-04-20 08:24 51°14.005 2°55.451 -999 -999 -999 -999 -999
2007-04-20 08:25 51°14.005 2°55.451 -999 -999 -999 -999 -999
2007-04-20 08:26 51°14.005 2°55.45 -999 -999 -999 -999 -999
2007-04-20 08:27 51°14.005 2°55.45 -999 -999 -999 -999 -999
2007-04-20 08:28 51°14.005 2°55.451 -999 -999 -999 -999 -999
2007-04-20 08:29 51°14.005 2°55.45 -999 -999 -999 -999 -999
2007-04-20 08:30 51°14.005 2°55.451 -999 -999 -999 -999 -999
2007-04-20 08:31 51°14.005 2°55.451 -999 -999 -999 -999 -999
2007-04-20 08:32 51°14.005 2°55.451 -999 -999 -999 -999 -999
2007-04-20 08:33 51°14.005 2°55.451 -999 -999 -999 -999 -999
2007-04-20 08:34 51°14.004 2°55.451 -999 -999 -999 -999 -999
2007-04-20 08:35 51°14.004 2°55.451 -999 -999 -999 -999 -999
2007-04-20 08:36 51°14.005 2°55.452 -999 -999 -999 -999 -999
2007-04-20 08:37 51°14.005 2°55.452 -999 -999 -999 -999 -999
2007-04-20 08:38 51°14.005 2°55.452 -999 -999 -999 -999 -999
2007-04-20 08:39 51°14.005 2°55.452 -999 -999 -999 -999 -999
2007-04-20 08:40 51°14.005 2°55.451 -999 -999 -999 -999 -999
2007-04-20 08:41 51°14.006 2°55.452 -999 -999 -999 -999 -999
2007-04-20 08:42 51°14.006 2°55.452 -999 -999 -999 -999 -999
2007-04-20 08:43 51°14.005 2°55.452 -999 -999 -999 -999 -999
2007-04-20 08:44 51°14.005 2°55.453 -999 -999 -999 -999 -999
2007-04-20 08:45 51°14.005 2°55.452 -999 -999 -999 -999 -999
2007-04-20 08:46 51°14.005 2°55.452 -999 -999 -999 -999 -999
2007-04-20 08:47 51°14.005 2°55.452 -999 -999 -999 -999 -999
2007-04-20 08:48 51°14.005 2°55.452 -999 -999 -999 -999 -999
2007-04-20 08:49 51°14.005 2°55.452 -999 -999 -999 -999 -999
2007-04-20 08:50 51°14.008 2°55.455 -999 -999 -999 -999 -999
2007-04-20 08:51 51°14.005 2°55.451 -999 -999 -999 -999 -999
2007-04-20 08:52 51°14.004 2°55.451 -999 -999 -999 -999 -999
2007-04-20 08:53 51°14.003 2°55.449 -999 -999 -999 -999 -999
2007-04-20 08:54 51°14.003 2°55.449 -999 -999 -999 -999 -999
2007-04-20 08:55 51°14.002 2°55.448 -999 -999 -999 -999 -999
2007-04-20 08:56 51°14.002 2°55.448 -999 -999 -999 -999 -999
2007-04-20 08:57 51°14.001 2°55.448 -999 -999 -999 -999 -999
2007-04-20 08:58 51°14.002 2°55.448 -999 -999 -999 -999 -999
2007-04-20 08:59 51°14.003 2°55.448 -999 -999 -999 -999 -999
2007-04-20 09:00 51°14.003 2°55.448 -999 -999 -999 -999 -999
2007-04-20 09:01 51°14.004 2°55.45 -999 -999 -999 -999 -999
2007-04-20 09:02 51°14.004 2°55.449 -999 -999 -999 -999 -999
2007-04-20 09:03 51°14.006 2°55.452 -999 -999 -999 -999 -999
2007-04-20 09:04 51°14.004 2°55.45 -999 -999 -999 -999 -999
2007-04-20 09:05 51°14.004 2°55.45 -999 -999 -999 -999 -999
2007-04-20 09:06 51°14.003 2°55.448 -999 -999 -999 -999 -999
2007-04-20 09:07 51°14.003 2°55.448 -999 -999 -999 -999 -999
2007-04-20 09:08 51°14.003 2°55.448 -999 -999 -999 -999 -999
2007-04-20 09:09 51°14.003 2°55.449 -999 -999 -999 -999 -999
2007-04-20 09:10 51°14.003 2°55.449 -999 -999 -999 -999 -999
2007-04-20 09:11 51°14.004 2°55.451 -999 -999 -999 -999 -999
2007-04-20 09:12 51°14.004 2°55.451 -999 -999 -999 -999 -999
2007-04-20 09:13 51°14.004 2°55.451 -999 -999 -999 -999 -999
2007-04-20 09:14 51°14.004 2°55.451 -999 -999 -999 -999 -999
2007-04-20 09:15 51°14.004 2°55.451 -999 -999 -999 -999 -999
2007-04-20 09:16 51°14.004 2°55.451 -999 -999 -999 -999 -999
2007-04-20 09:17 51°14.004 2°55.45 -999 -999 -999 -999 -999
2007-04-20 09:18 51°14.004 2°55.45 -999 -999 -999 -999 -999
2007-04-20 09:19 51°14.004 2°55.45 -999 -999 -999 -999 -999
2007-04-20 09:20 51°14.004 2°55.449 -999 -999 -999 -999 -999
2007-04-20 09:21 51°14.004 2°55.449 -999 -999 -999 -999 -999
2007-04-20 09:22 51°14.004 2°55.449 -999 -999 -999 -999 -999
2007-04-20 09:23 51°14.004 2°55.45 -999 -999 -999 -999 -999
2007-04-20 09:24 51°14.004 2°55.451 -999 -999 -999 -999 -999
2007-04-20 09:25 51°14.005 2°55.451 -999 -999 -999 -999 -999
2007-04-20 09:26 51°14.005 2°55.451 -999 -999 -999 -999 -999
2007-04-20 09:27 51°14.004 2°55.451 -999 -999 -999 -999 -999
2007-04-20 09:28 51°14.005 2°55.451 -999 -999 -999 -999 -999
2007-04-20 09:29 51°14.005 2°55.451 -999 -999 -999 -999 -999
2007-04-20 09:30 51°14.005 2°55.451 -999 -999 -999 -999 -999
2007-04-20 09:31 51°14.005 2°55.451 -999 -999 -999 -999 -999
2007-04-20 09:32 51°14.005 2°55.451 -999 -999 -999 -999 -999
2007-04-20 09:33 51°14.005 2°55.451 -999 -999 -999 -999 -999
2007-04-20 09:34 51°14.005 2°55.451 -999 -999 -999 -999 -999
2007-04-20 09:35 51°14.006 2°55.451 -999 -999 -999 -999 -999
2007-04-20 09:36 51°14.005 2°55.451 -999 -999 -999 -999 -999
2007-04-20 09:37 51°14.005 2°55.451 -999 -999 -999 -999 -999
2007-04-20 09:38 51°14.006 2°55.45 -999 -999 -999 -999 -999
2007-04-20 09:39 51°14.005 2°55.451 -999 -999 -999 -999 -999
2007-04-20 09:40 51°14.005 2°55.451 -999 -999 -999 -999 -999
2007-04-20 09:41 51°14.004 2°55.451 -999 -999 -999 -999 -999
2007-04-20 09:42 51°14.004 2°55.451 -999 -999 -999 -999 -999
2007-04-20 09:43 51°14.004 2°55.451 -999 -999 -999 -999 -999
2007-04-20 09:44 51°14.004 2°55.451 -999 -999 -999 -999 -999
2007-04-20 09:45 51°14.004 2°55.451 -999 -999 -999 -999 -999
2007-04-20 09:46 51°14.004 2°55.451 -999 -999 -999 -999 -999
2007-04-20 09:47 51°14.004 2°55.451 -999 -999 -999 -999 -999
2007-04-20 09:48 51°14.005 2°55.451 -999 -999 -999 -999 -999
2007-04-20 09:49 51°14.004 2°55.451 -999 -999 -999 -999 -999
2007-04-20 09:50 51°14.004 2°55.451 -999 -999 -999 -999 -999
2007-04-20 09:51 51°14.005 2°55.451 -999 -999 -999 -999 -999
2007-04-20 09:52 51°14.005 2°55.451 -999 -999 -999 -999 -999
2007-04-20 09:53 51°14.005 2°55.451 -999 -999 -999 -999 -999
2007-04-20 09:54 51°14.005 2°55.451 -999 -999 -999 -999 -999
2007-04-20 09:55 51°14.005 2°55.451 -999 -999 -999 -999 -999
2007-04-20 09:56 51°14.004 2°55.451 -999 -999 -999 -999 -999
2007-04-20 09:57 51°14.004 2°55.451 -999 -999 -999 -999 -999
2007-04-20 09:58 51°14.004 2°55.451 -999 -999 -999 -999 -999
2007-04-20 09:59 51°14.004 2°55.451 -999 -999 -999 -999 -999
2007-04-20 10:00 51°14.004 2°55.451 -999 -999 -999 -999 -999
2007-04-20 10:01 51°14.004 2°55.451 -999 -999 -999 -999 -999
2007-04-20 10:02 51°14.004 2°55.451 -999 -999 -999 -999 -999
2007-04-20 10:03 51°14.004 2°55.45 -999 -999 -999 -999 -999
2007-04-20 10:04 51°14.004 2°55.45 -999 -999 -999 -999 -999
2007-04-20 10:05 51°14.005 2°55.451 -999 -999 -999 -999 -999
2007-04-20 10:06 51°14.005 2°55.451 -999 -999 -999 -999 -999
2007-04-20 10:07 51°14.005 2°55.451 -999 -999 -999 -999 -999
2007-04-20 10:08 51°14.005 2°55.451 -999 -999 -999 -999 -999
2007-04-20 10:09 51°14.004 2°55.451 -999 -999 -999 -999 -999
2007-04-20 10:10 51°14.004 2°55.451 -999 -999 -999 -999 -999
2007-04-20 10:11 51°14.004 2°55.45 -999 -999 -999 -999 -999
2007-04-20 10:12 51°14.004 2°55.45 -999 -999 -999 -999 -999
2007-04-20 10:13 51°14.004 2°55.451 -999 -999 -999 -999 -999
2007-04-20 10:14 51°14.003 2°55.45 -999 -999 -999 -999 -999
2007-04-20 10:15 51°14.003 2°55.45 -999 -999 -999 -999 -999
2007-04-20 10:16 51°14.003 2°55.45 -999 -999 -999 -999 -999
2007-04-20 10:17 51°14.01 2°55.455 -999 -999 -999 -999 -999
2007-04-20 10:18 51°14.004 2°55.451 -999 -999 -999 -999 -999
2007-04-20 10:19 51°14.004 2°55.45 -999 -999 -999 -999 -999
2007-04-20 10:20 51°14.004 2°55.45 -999 -999 -999 -999 -999
2007-04-20 10:21 51°14.002 2°55.449 -999 -999 -999 -999 -999
2007-04-20 10:22 51°13.999 2°55.447 -999 -999 -999 -999 -999
2007-04-20 10:23 51°14.005 2°55.451 -999 -999 -999 -999 -999
2007-04-20 10:24 51°14.005 2°55.451 -999 -999 -999 -999 -999
2007-04-20 10:25 51°14.006 2°55.451 -999 -999 -999 -999 -999
2007-04-20 10:26 51°14.005 2°55.451 -999 -999 -999 -999 -999
2007-04-20 10:27 51°14.006 2°55.451 -999 -999 -999 -999 -999
2007-04-20 10:28 51°14.005 2°55.451 -999 -999 -999 -999 -999
2007-04-20 10:29 51°14.005 2°55.451 -999 -999 -999 -999 -999
2007-04-20 10:30 51°14.005 2°55.451 -999 -999 -999 -999 -999
2007-04-20 10:31 51°14.005 2°55.451 -999 -999 -999 -999 -999
2007-04-20 10:32 51°14.005 2°55.451 -999 -999 -999 -999 -999
2007-04-20 10:33 51°14.005 2°55.451 -999 -999 -999 -999 -999
2007-04-20 10:34 51°14.005 2°55.45 -999 -999 -999 -999 -999
2007-04-20 10:35 51°14.005 2°55.451 -999 -999 -999 -999 -999
2007-04-20 10:36 51°14.004 2°55.451 -999 -999 -999 -999 -999
2007-04-20 10:37 51°14.004 2°55.451 -999 -999 -999 -999 -999
2007-04-20 10:38 51°14.005 2°55.451 -999 -999 -999 -999 -999
2007-04-20 10:39 51°14.004 2°55.449 -999 -999 -999 -999 -999
2007-04-20 10:40 51°14.005 2°55.448 -999 -999 -999 -999 -999
2007-04-20 10:41 51°14.006 2°55.448 -999 -999 -999 -999 -999
2007-04-20 10:42 51°14.005 2°55.449 -999 -999 -999 -999 -999
2007-04-20 10:43 51°14.005 2°55.45 -999 -999 -999 -999 -999
2007-04-20 10:44 51°14.006 2°55.45 -999 -999 -999 -999 -999
2007-04-20 10:45 51°14.006 2°55.45 -999 -999 -999 -999 -999
2007-04-20 10:46 51°14.005 2°55.45 -999 -999 -999 -999 -999
2007-04-20 10:47 51°14.005 2°55.45 -999 -999 -999 -999 -999
2007-04-20 10:48 51°14.013 2°55.451 -999 -999 -999 -999 -999
2007-04-20 10:49 51°14.006 2°55.45 -999 -999 -999 -999 -999
2007-04-20 10:50 51°14.005 2°55.448 -999 -999 -999 -999 -999
2007-04-20 10:51 51°14.007 2°55.45 -999 -999 -999 -999 -999
2007-04-20 10:52 51°14.004 2°55.451 -999 -999 -999 -999 -999
2007-04-20 10:53 51°14.001 2°55.451 -999 -999 -999 -999 -999
2007-04-20 10:54 51°14.001 2°55.451 -999 -999 -999 -999 -999
2007-04-20 10:55 51°14.003 2°55.452 -999 -999 -999 -999 -999
2007-04-20 10:56 51°14.003 2°55.452 -999 -999 -999 -999 -999
2007-04-20 10:57 51°14.003 2°55.45 -999 -999 -999 -999 -999
2007-04-20 10:58 51°14.004 2°55.451 -999 -999 -999 -999 -999
2007-04-20 10:59 51°14.003 2°55.452 -999 -999 -999 -999 -999
2007-04-20 11:00 51°14.002 2°55.451 -999 -999 -999 -999 -999
2007-04-20 11:01 51°14.003 2°55.449 -999 -999 -999 -999 -999
2007-04-20 11:02 51°14.004 2°55.448 -999 -999 -999 -999 -999
2007-04-20 11:03 51°14.004 2°55.447 -999 -999 -999 -999 -999
2007-04-20 11:04 51°14.004 2°55.447 -999 -999 -999 -999 -999
2007-04-20 11:05 51°14.004 2°55.446 -999 -999 -999 -999 -999
2007-04-20 11:06 51°14.004 2°55.446 -999 -999 -999 -999 -999
2007-04-20 11:07 51°14.004 2°55.446 -999 -999 -999 -999 -999
2007-04-20 11:08 51°14.005 2°55.448 -999 -999 -999 -999 -999
2007-04-20 11:09 51°14.004 2°55.448 -999 -999 -999 -999 -999
2007-04-20 11:10 51°14.004 2°55.449 -999 -999 -999 -999 -999
2007-04-20 11:11 51°14.004 2°55.45 -999 -999 -999 -999 -999
2007-04-20 11:12 51°14.004 2°55.45 -999 -999 -999 -999 -999
2007-04-20 11:13 51°14.004 2°55.451 -999 -999 -999 -999 -999
2007-04-20 11:14 51°14.004 2°55.452 -999 -999 -999 -999 -999
2007-04-20 11:15 51°14.004 2°55.449 -999 -999 -999 -999 -999
2007-04-20 11:16 51°14.004 2°55.449 -999 -999 -999 -999 -999
2007-04-20 11:17 51°14.004 2°55.448 -999 -999 -999 -999 -999
2007-04-20 11:18 51°14.004 2°55.448 -999 -999 -999 -999 -999
2007-04-20 11:19 51°14.004 2°55.447 -999 -999 -999 -999 -999
2007-04-20 11:20 51°14.004 2°55.447 -999 -999 -999 -999 -999
2007-04-20 11:21 51°14.004 2°55.446 -999 -999 -999 -999 -999
2007-04-20 11:22 51°14.004 2°55.447 -999 -999 -999 -999 -999
2007-04-20 11:23 51°14.004 2°55.448 -999 -999 -999 -999 -999
2007-04-20 11:24 51°14.005 2°55.448 -999 -999 -999 -999 -999
2007-04-20 11:25 51°14.005 2°55.448 -999 -999 -999 -999 -999
2007-04-20 11:26 51°14.005 2°55.448 -999 -999 -999 -999 -999
2007-04-20 11:27 51°14.005 2°55.446 -999 -999 -999 -999 -999
2007-04-20 11:28 51°14.005 2°55.445 -999 -999 -999 -999 -999
2007-04-20 11:29 51°14.005 2°55.445 -999 -999 -999 -999 -999
2007-04-20 11:30 51°14.005 2°55.443 -999 -999 -999 -999 -999
2007-04-20 11:31 51°14.005 2°55.441 -999 -999 -999 -999 -999
2007-04-20 11:32 51°14.005 2°55.441 -999 -999 -999 -999 -999
2007-04-20 11:33 51°14.005 2°55.441 -999 -999 -999 -999 -999
2007-04-20 11:34 51°14.005 2°55.441 -999 -999 -999 -999 -999
2007-04-20 11:35 51°14.005 2°55.441 -999 -999 -999 -999 -999
2007-04-20 11:36 51°14.005 2°55.442 -999 -999 -999 -999 -999
2007-04-20 11:37 51°14.005 2°55.444 -999 -999 -999 -999 -999
2007-04-20 11:38 51°14.005 2°55.445 -999 -999 -999 -999 -999
2007-04-20 11:39 51°14.004 2°55.446 -999 -999 -999 -999 -999
2007-04-20 11:40 51°14.004 2°55.447 -999 -999 -999 -999 -999
2007-04-20 11:41 51°14.004 2°55.447 -999 -999 -999 -999 -999
2007-04-20 11:43 51°14.005 2°55.45 -999 -999 -999 -999 -999
2007-04-20 11:44 51°14.005 2°55.45 -999 -999 -999 -999 -999
2007-04-20 11:45 51°14.005 2°55.45 -999 -999 -999 -999 -999
2007-04-20 11:46 51°14.006 2°55.45 -999 -999 -999 -999 -999
2007-04-20 11:47 51°14.005 2°55.45 -999 -999 -999 -999 -999
2007-04-20 11:48 51°14.005 2°55.451 -999 -999 -999 -999 -999
2007-04-20 11:49 51°14.005 2°55.451 -999 -999 -999 -999 -999
2007-04-20 11:50 51°14.005 2°55.45 -999 -999 -999 -999 -999
2007-04-20 11:51 51°14.005 2°55.45 -999 -999 -999 -999 -999
2007-04-20 11:52 51°14.005 2°55.45 -999 -999 -999 -999 -999
2007-04-20 11:53 51°14.005 2°55.45 -999 -999 -999 -999 -999
2007-04-20 11:54 51°14.006 2°55.45 -999 -999 -999 -999 -999
2007-04-20 11:55 51°14.007 2°55.452 -999 -999 -999 -999 -999
2007-04-20 11:56 51°13.998 2°55.467 -999 -999 -999 -999 -999
2007-04-20 11:57 51°13.964 2°55.537 -999 -999 -999 -999 -999
2007-04-20 11:58 51°13.941 2°55.635 -999 -999 -999 -999 -999
2007-04-20 11:59 51°13.916 2°55.605 -999 -999 -999 -999 -999
2007-04-20 12:16 51°13.909 2°55.601 -999 -999 -999 -999 -999